Location: Bad Rothenbrunn
(47.2167°N, 11.2167°E)
Time: 19:22:53
(UTC+00:00)

MOS 1 - Pass Details

Date: 03 March 2021
Orbit: 878 x 891 km, 99.1° (Epoch: 21 April)

Event Time Altitude Azimuth Distance (km) Brightness Sun altitude
Exits shadow 19:26:07 29° 175° (S) 1,579 5.4 -24.7°
Maximum altitude 19:29:10 75° 256° (WSW) 924 4.4 -25.2°
Drops below altitude 10° 19:34:52 10° 342° (NNW) 2,559 7.1 -26.1°
Sets 19:37:17 0° 344° (NNW) 3,500 7.9 -26.5°
